Theta_e
353 353 353 353 354 355 355 354 354 355 355 353 351 350 351 352 351 349 349 348 348 348 349 349 346 342 342 344 344 345 346 347 347 348 347 349 350 351 350 350 350 349 350 351 351 351 351 352 351 351 350 351 352 353 352 351 351 351 351 350 350 350 351 352 351 351 351 349 349 349 350 350 349 349 350 349 349 350 349 349 349 349 350 350 350
353 352 353 352 353 355 353 353 353 355 354 351 350 350 350 348 347 346 346 345 345 346 347 346 344 344 345 345 345 347 348 348 348 348 349 350 352 352 352 352 352 351 351 351 351 351 351 351 352 351 350 351 352 352 352 352 351 351 349 349 349 349 351 351 351 351 351 350 349 350 352 351 350 349 349 350 350 350 348 348 349 349 350 350 350
353 353 353 351 352 353 352 351 351 353 353 351 350 350 347 342 341 341 340 340 342 343 344 343 344 345 345 346 346 349 349 349 348 350 350 350 352 353 352 352 352 352 352 351 351 351 351 352 351 351 351 351 352 351 351 352 351 349 348 347 348 349 350 350 350 351 351 351 351 351 351 351 350 349 350 350 349 349 349 350 349 349 349 349 350
352 353 353 352 352 352 351 350 350 352 352 351 348 344 341 337 338 338 339 342 345 345 343 344 344 345 346 348 350 351 350 349 349 351 351 351 352 353 352 352 352 351 352 352 351 350 351 351 351 351 351 351 351 351 351 352 351 348 348 348 348 349 349 349 350 350 350 350 349 349 350 350 349 349 349 349 348 349 350 351 350 349 349 349 348
352 353 353 353 352 352 350 349 351 352 352 350 343 337 338 338 340 342 343 347 348 347 345 344 346 347 349 352 354 353 351 351 351 352 352 352 352 352 353 352 350 351 352 353 351 351 351 351 351 350 351 351 350 350 350 350 350 349 349 349 348 348 349 350 351 350 349 349 348 349 349 349 349 349 350 349 349 350 350 350 350 349 348 348 348
352 353 352 352 351 352 350 350 352 352 351 351 345 339 340 340 341 342 345 348 348 347 346 347 348 350 352 353 354 354 353 352 352 352 352 352 352 352 353 351 351 351 351 352 351 351 352 351 351 351 351 350 349 348 348 348 348 349 349 350 349 349 350 349 350 349 348 347 347 348 349 349 349 350 350 349 350 350 349 349 350 349 348 348 349
353 353 352 352 351 352 352 352 351 351 351 353 351 345 343 342 342 343 347 349 349 348 348 349 350 351 352 353 354 353 353 353 352 352 352 352 352 352 352 353 352 352 352 351 351 350 351 351 351 352 351 350 348 346 347 347 347 348 349 350 351 350 350 349 348 348 347 347 346 347 348 347 349 350 350 350 349 349 349 349 350 350 349 348 348
353 354 354 353 353 353 353 351 350 351 352 353 352 348 344 344 345 346 350 350 349 349 350 351 351 351 352 354 354 353 353 353 352 352 352 352 352 351 352 352 353 352 351 350 350 351 351 351 351 351 350 349 348 347 346 347 349 350 350 350 350 351 350 348 348 348 348 347 346 346 345 345 348 350 350 349 349 349 349 349 349 350 349 348 347
354 355 354 354 354 354 353 350 349 350 352 352 350 346 343 346 347 349 351 352 350 351 351 352 351 351 352 353 353 353 353 352 351 351 352 352 352 352 351 351 351 351 350 351 351 351 351 351 352 351 350 349 348 346 346 348 349 350 350 350 350 351 350 348 348 348 348 348 346 345 344 346 348 350 350 349 349 349 349 348 347 348 347 346 346
354 355 354 354 353 353 351 350 349 351 351 350 348 344 345 348 350 350 352 352 352 352 352 352 352 352 353 352 352 353 353 352 352 352 351 352 352 351 351 351 351 352 351 351 352 352 351 351 352 351 349 348 347 345 347 349 349 350 351 350 350 351 351 349 348 348 348 348 347 346 346 348 349 350 349 349 349 348 348 346 345 345 344 344 344
354 354 353 353 353 352 351 351 351 351 350 349 346 344 349 352 351 351 352 353 353 353 353 352 352 353 353 352 352 353 353 352 353 352 352 352 352 351 351 351 352 352 351 351 351 350 350 351 351 351 349 347 346 344 349 351 350 351 351 350 351 351 350 349 348 348 349 349 349 347 347 348 350 350 349 349 349 348 346 344 342 341 341 341 341
355 354 352 352 352 352 352 352 351 351 350 347 344 347 352 353 352 353 352 354 354 353 353 353 352 352 353 353 352 353 353 352 353 353 351 351 351 352 351 352 352 351 351 351 351 351 351 351 351 350 346 346 344 344 350 350 349 350 350 350 351 351 349 349 348 349 349 349 349 347 348 349 350 350 349 349 347 346 344 341 340 339 339 338 339
356 353 352 353 353 352 353 352 350 348 346 345 345 350 353 353 353 353 353 353 353 353 353 353 352 353 353 353 352 353 353 353 353 352 351 351 351 351 351 352 352 350 350 350 351 351 350 350 351 348 345 345 344 346 350 350 349 350 351 350 351 351 348 348 348 349 348 347 347 347 348 349 350 350 348 347 345 343 341 340 339 339 338 338 339
355 353 353 353 352 352 350 347 345 345 345 347 349 351 352 353 353 353 354 354 354 353 354 354 353 353 353 353 352 352 352 352 352 352 351 351 351 351 351 351 351 349 349 350 351 350 349 350 350 348 345 345 344 346 350 350 350 351 351 351 351 352 349 348 348 348 348 347 346 347 348 349 349 349 348 346 344 342 341 340 339 339 338 339 340
352 352 351 350 349 348 345 343 344 346 348 350 351 351 352 353 353 353 353 353 353 353 353 354 353 352 352 352 352 352 352 351 351 352 351 351 351 350 350 350 348 347 347 350 351 350 350 349 349 348 345 343 342 345 349 350 350 352 352 351 351 351 349 348 348 347 346 345 345 346 347 348 349 348 349 347 344 342 341 340 339 339 339 339 339
350 347 345 344 345 345 345 346 348 350 352 352 352 351 352 353 353 353 353 353 353 354 354 354 353 352 351 351 352 352 351 350 350 350 350 350 350 350 350 349 347 346 346 349 350 350 350 350 348 347 343 340 341 344 348 349 349 350 351 351 350 349 348 347 347 346 345 344 344 346 346 348 349 349 348 348 345 343 341 340 340 340 340 340 340
346 342 343 344 345 348 350 351 351 352 353 353 352 351 351 352 352 353 353 353 353 354 354 353 352 352 351 352 352 352 351 350 351 350 349 350 350 350 350 348 346 344 345 348 351 351 350 348 347 344 340 339 342 345 348 348 347 349 350 350 350 349 348 347 346 345 344 344 344 345 346 347 348 349 348 348 346 344 342 342 342 342 343 343 343
346 345 346 348 350 351 352 352 352 353 353 353 352 351 352 352 352 353 353 352 353 353 353 353 352 352 352 352 352 351 351 350 350 350 349 349 350 350 349 346 344 344 345 348 350 349 348 347 347 345 340 338 341 345 347 347 347 349 350 350 349 349 349 348 347 346 345 344 344 344 346 347 348 348 348 347 346 345 344 343 343 344 345 346 346
351 351 351 350 351 352 352 352 352 352 353 353 352 351 352 352 351 352 352 352 352 353 353 354 352 352 352 352 352 350 350 350 350 350 349 349 349 348 348 346 345 345 344 346 346 346 347 346 347 345 342 339 341 345 346 346 347 349 351 351 350 348 348 348 349 349 347 345 344 345 346 347 348 348 347 347 347 346 345 344 344 345 346 347 346
354 354 353 353 354 353 352 352 351 352 352 352 352 352 352 351 351 351 351 351 352 353 353 353 352 352 353 354 353 351 351 352 351 351 350 349 349 348 348 347 346 345 344 344 344 344 346 346 345 345 343 339 341 345 346 346 346 348 350 351 351 348 347 348 349 349 347 346 345 345 346 346 348 348 347 347 347 346 346 345 345 346 347 347 346
354 354 355 355 355 353 353 352 351 351 351 352 351 351 352 352 351 351 351 352 353 353 353 352 353 353 353 353 352 352 352 352 351 350 350 350 349 348 348 348 346 345 345 344 344 344 345 345 343 343 343 340 341 344 346 346 346 346 347 349 350 348 348 348 347 346 345 345 345 345 345 346 347 348 348 348 348 347 346 346 347 347 347 347 346
353 354 355 355 354 353 352 350 351 351 350 351 350 351 352 352 351 352 352 352 353 352 352 353 353 353 352 351 351 352 352 352 351 349 350 351 349 348 348 347 347 347 345 345 345 345 345 344 344 344 345 344 343 343 345 346 346 347 347 347 348 348 349 348 344 344 344 344 345 345 345 345 346 347 347 348 348 347 348 347 347 347 346 346 346
352 353 355 354 354 354 351 350 353 352 349 350 350 350 351 351 351 352 352 352 352 352 352 353 353 353 351 350 351 352 351 351 351 350 349 350 350 347 346 347 346 346 344 345 346 345 345 344 346 348 348 348 347 347 347 347 348 347 348 347 347 348 349 345 340 341 343 343 344 344 344 344 345 347 347 348 347 347 348 347 346 346 346 346 346
351 352 355 354 354 356 353 353 355 352 349 349 349 350 350 350 351 351 351 351 351 353 353 353 352 351 351 350 351 351 351 352 352 350 348 348 350 348 347 347 346 346 346 347 348 348 349 349 349 350 349 349 349 350 349 350 350 348 349 348 348 347 348 344 336 337 340 341 342 343 344 344 345 346 346 347 347 347 347 346 345 346 346 346 345
351 352 353 354 355 356 355 355 355 353 352 349 348 350 350 350 350 350 351 350 351 354 354 352 351 350 350 350 350 351 351 353 352 348 346 347 348 348 348 349 347 347 347 348 349 349 350 351 350 349 348 348 347 349 349 350 350 349 349 349 348 347 348 343 335 333 336 337 339 339 341 343 344 346 347 347 347 347 346 345 345 345 345 345 344
350 351 353 354 354 355 354 354 354 355 355 349 348 351 351 350 350 351 351 352 353 354 354 352 350 350 351 350 351 352 351 352 349 345 346 346 348 348 349 351 350 349 349 348 350 350 351 349 349 349 348 347 347 348 348 349 350 350 349 348 348 347 348 344 336 334 334 334 335 336 337 338 340 343 345 346 347 346 345 344 345 345 344 345 344
349 352 353 353 354 354 353 353 353 355 354 349 349 352 352 352 352 352 353 353 354 353 352 352 350 352 352 352 352 352 350 350 347 346 347 347 348 348 349 351 351 351 350 350 350 350 350 349 350 349 348 347 347 347 348 348 350 351 349 347 347 348 348 344 338 337 336 335 335 335 335 335 337 339 341 344 345 345 344 344 344 344 345 345 344
350 351 353 354 354 354 354 353 354 354 354 351 352 354 354 354 354 354 354 353 355 353 351 351 351 352 352 352 354 352 351 350 349 349 350 349 349 350 351 350 350 350 350 349 350 349 349 349 350 350 348 347 347 347 348 348 348 350 349 347 347 347 348 346 340 338 339 337 337 336 336 335 336 338 340 341 342 342 343 344 344 344 345 344 344
350 351 352 353 354 354 354 354 353 354 354 352 352 354 355 355 354 355 353 353 356 353 349 351 351 352 351 350 354 354 351 352 350 350 350 350 350 351 350 348 349 351 350 350 350 350 349 349 351 350 349 347 347 347 346 348 348 349 349 348 348 348 348 348 343 338 339 339 339 338 337 336 336 336 338 340 341 342 343 344 344 345 345 345 345
350 352 351 352 353 353 354 354 354 354 354 353 351 353 354 353 353 354 353 352 354 352 350 351 351 350 350 350 353 353 351 351 350 348 349 349 348 349 349 348 350 351 350 350 350 350 350 349 350 350 352 349 347 347 346 347 348 347 349 349 348 348 348 348 346 340 339 340 340 340 339 338 337 336 336 337 339 340 341 342 343 343 344 345 346
350 351 351 351 352 353 354 355 355 355 353 354 353 351 352 351 352 354 353 351 352 352 352 352 349 349 349 349 351 351 351 351 349 348 348 347 347 348 349 350 350 350 351 351 350 350 351 351 350 351 352 350 347 348 346 346 346 345 348 349 348 349 348 348 348 344 340 340 340 341 341 340 339 338 337 336 336 336 337 338 339 340 341 341 343
350 351 351 351 352 353 354 355 355 355 355 355 353 351 352 351 351 353 353 352 352 352 352 350 350 350 350 350 350 350 350 351 349 348 349 348 348 349 350 351 350 350 352 351 352 352 352 351 351 352 351 349 347 348 346 345 344 344 346 348 348 348 348 348 349 348 344 340 339 340 341 341 341 340 339 339 337 336 335 335 336 337 337 338 340
349 349 350 351 352 352 354 356 356 355 355 355 352 352 353 352 351 352 354 353 352 352 351 351 352 353 353 353 351 351 351 351 351 351 351 350 350 349 349 351 352 352 352 352 352 352 352 351 351 353 352 349 349 348 347 345 344 344 345 347 347 347 349 349 349 349 348 343 339 339 340 341 341 341 341 341 341 340 339 338 337 336 337 337 338
348 349 349 351 351 353 354 356 354 353 355 354 352 353 354 352 350 352 354 352 351 352 350 350 352 352 354 355 354 355 354 353 353 353 353 352 351 351 351 352 353 353 352 352 352 351 351 351 350 352 352 350 349 348 348 346 343 343 344 345 347 347 348 348 349 349 348 346 343 341 340 339 340 341 341 342 342 343 342 341 340 339 339 338 338
347 348 348 349 350 353 354 354 352 352 354 354 353 352 352 352 351 352 353 351 351 352 349 349 351 349 353 356 356 356 355 353 353 353 353 354 352 352 352 353 354 353 351 350 351 350 349 349 349 350 351 349 348 347 347 345 343 343 344 345 345 346 347 348 348 349 348 347 346 345 344 341 340 341 341 340 341 342 342 342 341 341 342 341 340
346 346 347 348 349 353 353 352 352 353 354 354 353 351 351 351 351 352 351 349 351 352 350 351 351 347 350 355 355 354 354 353 354 353 353 354 353 352 353 353 353 352 351 350 350 351 350 349 350 350 350 349 347 346 346 343 343 342 343 344 345 346 347 346 347 348 348 347 346 347 348 346 345 345 344 343 342 342 341 341 341 341 342 342 341
345 345 345 346 349 352 352 352 352 353 354 354 354 353 353 353 352 352 351 348 350 351 350 352 353 349 349 353 354 353 353 354 355 354 354 353 353 354 353 351 352 351 350 350 350 352 353 351 351 350 349 349 347 346 344 343 343 343 343 344 346 346 347 347 347 348 347 346 347 347 348 348 348 349 348 347 346 345 343 342 341 341 342 342 342
345 345 345 346 348 352 353 353 353 353 354 353 354 354 353 353 353 353 350 348 349 349 349 352 353 351 351 352 352 351 352 355 354 353 353 353 353 354 354 353 352 350 350 350 351 353 354 353 352 351 351 350 349 348 346 344 344 343 343 344 346 346 346 347 346 346 346 346 348 347 347 348 347 347 349 349 349 348 347 345 344 341 339 340 341
345 344 345 346 349 351 352 353 353 352 353 353 353 352 352 352 352 351 349 347 347 347 348 352 354 353 352 351 350 350 350 352 353 353 353 352 353 354 355 355 352 350 351 350 350 352 353 354 353 351 351 350 347 347 346 344 344 344 344 344 346 346 347 347 347 347 345 346 347 347 347 348 347 347 348 348 349 349 349 348 346 344 341 340 341
345 343 345 346 348 351 353 353 353 352 351 352 352 351 350 351 351 349 348 348 347 347 347 351 353 354 353 350 348 349 348 349 352 353 353 352 353 354 354 354 353 352 352 350 349 351 353 354 353 350 349 348 345 345 345 344 345 344 345 345 345 346 346 347 348 348 346 344 345 347 347 348 348 348 347 347 349 349 350 349 347 347 346 345 346
345 343 345 346 347 351 353 352 352 351 351 351 351 349 349 350 349 347 348 348 347 347 348 351 352 352 354 350 346 349 347 347 350 352 354 353 352 353 352 352 353 353 352 350 351 351 352 353 354 351 350 349 346 345 345 344 343 343 345 345 345 345 345 347 348 347 346 345 344 345 346 347 348 348 347 346 348 348 349 348 347 346 346 346 346
345 343 344 345 348 351 351 352 351 351 350 350 350 349 349 349 348 347 347 347 347 347 348 350 350 350 353 351 346 350 349 346 348 350 354 354 353 354 353 352 353 355 354 352 352 351 352 353 353 352 350 351 348 346 344 344 343 343 344 346 346 345 344 346 347 347 346 346 344 344 344 345 346 346 347 347 347 347 347 347 346 347 347 347 347
346 343 344 344 347 351 351 350 350 350 350 350 350 349 349 349 348 346 346 346 346 346 347 349 350 350 352 349 348 351 350 347 347 348 353 356 355 356 355 354 355 355 354 354 353 352 353 353 353 352 350 351 349 346 344 346 347 344 345 351 351 349 349 347 346 347 346 345 345 344 343 344 345 345 345 346 346 345 345 345 347 347 347 347 347
347 344 344 346 347 350 351 350 350 350 351 350 350 351 349 348 349 347 344 345 347 345 347 350 351 351 352 351 351 354 352 349 349 350 354 355 356 358 356 355 356 355 352 354 355 354 355 354 354 353 351 351 351 348 345 346 347 344 346 354 354 355 359 352 345 345 345 345 345 344 344 343 345 345 344 345 345 345 345 346 347 346 347 347 345
348 343 344 347 347 350 351 349 350 351 352 351 351 351 350 349 349 346 343 345 346 345 348 352 352 353 355 354 354 355 353 351 351 353 356 356 356 358 358 355 354 352 352 354 354 354 356 356 355 353 350 351 352 349 346 344 344 346 348 354 357 359 361 353 348 347 343 344 345 344 343 343 344 345 343 343 344 345 345 346 346 346 346 345 342
349 342 343 347 346 350 351 349 350 353 352 351 353 353 350 349 349 346 345 346 347 346 348 353 354 354 355 354 356 357 355 353 353 354 357 357 357 358 358 357 354 353 355 355 354 354 356 356 355 354 351 352 352 351 349 345 342 343 346 350 350 352 353 350 354 354 346 343 345 345 345 343 343 344 344 344 345 346 345 344 345 345 346 345 344
350 344 345 347 346 348 351 350 350 353 353 352 353 354 349 347 349 347 346 346 347 346 346 350 353 354 355 354 356 357 356 357 356 356 356 356 357 357 358 359 356 355 357 357 356 356 357 356 355 354 353 352 352 353 352 347 343 341 344 346 342 344 347 347 353 358 356 353 347 343 344 343 342 343 344 345 345 344 343 342 344 345 345 346 346
351 348 348 348 345 348 350 350 350 352 354 352 352 353 349 347 347 347 347 345 347 346 344 346 349 353 355 353 354 356 354 357 357 356 356 355 357 358 358 359 359 357 357 355 356 357 356 357 356 356 356 353 352 354 353 349 347 345 345 346 344 343 342 343 345 351 358 364 358 348 345 344 343 343 344 345 345 344 343 343 344 345 345 346 346
352 351 350 349 345 347 351 351 351 352 354 352 351 351 350 346 346 347 347 345 345 346 343 344 345 349 353 353 353 354 354 356 357 356 356 356 357 358 359 358 358 359 358 354 355 356 355 356 357 356 356 355 353 355 353 351 352 352 348 344 345 346 343 342 342 344 350 359 363 355 347 344 345 343 345 345 344 344 344 344 344 344 344 344 344
352 352 351 350 347 348 350 352 352 352 353 353 350 350 348 345 346 347 347 345 345 343 343 344 343 343 350 353 353 354 355 355 357 357 356 356 357 358 359 359 357 357 359 356 355 355 355 356 356 356 357 358 356 356 355 354 354 354 351 344 343 346 346 345 344 346 345 347 356 355 346 343 344 344 344 343 342 343 343 344 344 344 344 344 343
352 353 353 351 349 350 351 352 353 353 354 353 350 350 348 344 345 346 346 346 344 341 343 346 344 342 346 351 351 351 353 353 355 357 355 355 357 357 358 359 357 356 358 358 357 356 355 355 355 356 359 360 359 358 357 357 355 354 352 349 343 342 345 347 344 344 343 345 353 354 346 344 345 343 343 343 342 343 343 343 343 342 343 343 343
Wind_Speed
18 19 19 18 19 18 20 22 22 21 22 23 24 24 24 23 23 24 24 24 23 22 21 20 20 22 21 19 18 18 17 16 15 15 15 15 15 14 13 13 13 13 13 13 14 14 15 15 15 16 15 16 16 15 15 14 14 14 16 17 17 17 18 17 18 18 18 17 18 17 17 16 16 16 15 16 16 15 16 17 17 18 17 17 18
21 21 20 21 21 19 21 22 22 22 22 23 23 23 22 22 23 24 24 23 23 22 21 22 22 22 20 19 18 17 16 16 16 16 16 16 15 14 14 14 14 14 14 15 15 15 15 15 16 16 16 16 16 15 15 14 14 14 15 16 18 18 18 18 18 19 18 17 17 18 17 17 16 16 16 16 17 16 17 18 18 18 18 16 17
23 22 20 21 22 20 22 24 23 22 22 22 22 22 21 22 23 24 24 24 24 23 22 23 22 21 20 19 17 16 16 16 16 16 16 16 15 14 15 15 15 15 15 16 16 16 16 16 16 16 16 16 16 15 15 14 14 14 14 16 17 18 18 18 18 19 19 17 17 18 18 17 16 16 16 16 18 18 18 17 17 18 18 17 16
24 23 22 21 22 22 23 25 24 23 22 22 21 21 22 23 23 23 23 24 23 23 23 23 22 21 19 18 16 16 16 16 16 15 15 15 15 14 15 15 15 16 16 17 17 17 17 17 16 16 16 16 15 15 15 14 14 14 14 15 16 16 17 17 16 18 18 17 18 19 19 18 17 17 18 19 20 19 18 17 17 18 18 17 17
26 24 24 23 24 24 24 25 24 23 22 22 22 23 24 23 23 23 22 22 22 22 22 22 20 19 18 17 16 16 16 16 16 15 15 15 15 15 15 15 15 16 16 16 16 17 17 17 16 16 16 16 16 15 15 15 15 15 15 15 16 16 17 17 16 17 18 19 19 20 20 20 19 18 18 20 21 19 18 17 17 18 18 18 18
26 25 25 25 25 26 25 24 23 22 22 22 22 23 23 22 22 22 22 21 21 21 21 20 19 18 17 16 15 16 16 15 16 15 15 15 15 14 15 15 15 16 16 16 16 16 16 16 16 16 16 16 16 16 15 15 16 16 15 14 15 16 16 16 16 18 20 19 19 20 20 20 20 19 18 19 19 18 17 17 17 17 18 18 18
26 26 25 25 26 26 25 23 22 22 21 21 22 22 22 21 22 22 21 21 20 20 19 19 18 17 16 15 15 16 16 15 15 15 15 15 15 15 14 14 15 15 15 15 15 16 15 15 15 15 16 16 16 15 15 15 15 15 14 13 13 14 15 15 17 19 20 20 20 20 20 20 20 18 17 18 18 18 18 18 18 17 18 19 18
26 25 24 26 26 25 24 23 23 21 20 20 21 22 21 21 21 21 20 20 20 19 19 18 17 17 16 15 15 16 16 16 16 15 15 15 15 15 15 14 15 15 15 15 15 15 14 15 15 15 16 16 16 15 15 14 14 14 13 13 14 14 16 17 18 19 20 21 22 21 21 21 21 19 17 18 18 18 18 18 18 17 18 19 18
26 24 24 26 25 25 24 23 23 20 19 20 21 22 21 20 20 20 19 19 19 19 18 17 17 16 15 15 15 16 16 16 15 15 15 15 15 15 15 15 15 15 15 14 14 14 14 14 14 15 16 16 15 15 14 14 14 13 13 14 14 15 17 18 18 19 20 21 21 21 21 21 20 18 17 18 19 18 18 18 18 17 17 17 17
25 24 25 25 25 24 23 23 22 20 20 21 21 21 21 19 19 19 19 19 19 18 17 17 16 15 15 15 15 15 16 16 15 15 15 15 15 15 15 15 15 15 15 14 13 13 13 14 14 15 15 15 15 15 15 14 13 13 14 14 15 15 17 18 19 20 20 20 20 19 19 18 17 16 16 17 18 18 18 18 17 17 17 17 17
25 25 26 26 25 23 23 22 21 21 21 21 21 21 20 19 20 19 19 18 18 18 17 16 16 15 14 15 15 15 15 15 15 15 15 14 15 15 15 15 14 14 14 14 13 13 13 13 13 14 15 14 14 15 14 14 14 13 15 16 15 16 17 19 20 20 20 19 19 18 17 17 17 17 17 18 18 18 17 18 18 17 17 16 16
25 27 27 26 24 23 22 21 21 21 21 21 21 20 19 19 20 19 19 18 17 17 16 16 15 15 14 14 15 15 15 15 15 15 15 14 14 14 14 14 13 13 13 13 13 13 13 13 13 14 15 14 15 15 14 14 14 14 15 16 16 16 18 20 20 20 20 19 18 18 17 17 18 18 19 19 18 17 17 18 18 17 16 16 16
27 28 28 26 24 23 22 22 22 21 21 21 20 19 18 19 19 19 18 18 17 17 16 15 15 15 14 14 15 15 15 15 15 15 14 14 14 14 14 14 13 12 12 13 13 12 13 14 13 14 15 15 15 15 14 15 15 15 15 16 16 16 18 19 19 20 19 19 18 18 18 18 17 17 18 18 17 17 17 17 17 16 16 16 16
29 30 28 26 25 22 22 22 22 21 21 20 19 19 18 19 18 19 18 17 17 16 16 15 15 15 14 14 15 15 15 15 15 14 14 14 14 13 13 13 12 11 12 12 12 12 13 14 14 14 15 14 15 14 14 14 15 15 15 15 16 16 16 17 18 19 19 18 18 18 19 18 17 17 17 17 17 17 16 16 16 16 16 16 16
32 32 29 27 25 22 22 22 21 20 20 19 19 19 19 19 18 19 18 18 17 16 16 15 15 15 15 15 15 15 15 15 15 14 14 14 14 13 13 12 11 11 12 13 12 12 12 13 14 14 15 15 15 14 14 15 15 14 14 15 15 15 16 17 18 18 18 19 18 18 19 18 17 17 16 16 16 16 16 16 16 16 16 16 15
32 32 29 28 25 23 22 21 20 20 20 20 20 20 19 19 18 18 18 18 17 16 16 15 16 16 16 15 15 15 15 16 15 14 14 14 13 13 12 12 11 11 12 13 12 12 11 13 14 14 15 16 16 15 15 16 15 15 15 15 14 14 16 17 17 17 18 18 18 18 18 18 16 16 16 16 15 15 16 16 15 15 15 15 14
31 31 30 28 26 24 22 21 20 20 20 20 20 20 19 19 18 18 18 18 17 16 16 16 16 16 15 15 15 15 15 15 15 14 14 14 13 13 12 12 11 11 12 12 11 11 12 13 14 14 16 17 17 16 16 16 16 16 16 15 15 14 16 17 17 17 17 17 18 18 18 17 16 15 15 15 15 15 15 15 15 14 14 13 13
30 31 30 28 27 24 23 22 21 20 20 20 20 20 19 19 18 18 18 18 17 17 16 16 16 16 15 15 15 15 15 15 14 14 14 14 14 13 12 12 12 12 12 12 12 12 12 14 14 14 15 17 17 16 16 17 17 16 16 15 14 14 15 16 17 16 15 16 16 17 17 17 15 15 14 15 14 14 14 14 14 13 13 12 11
29 29 29 28 26 24 23 23 22 21 21 21 20 19 18 18 18 19 18 18 18 17 16 16 16 15 15 14 14 15 15 14 14 14 14 14 14 13 12 13 13 13 14 14 14 14 14 14 14 13 14 16 17 17 16 17 17 15 14 14 14 15 15 15 15 14 13 14 15 15 16 16 15 13 14 14 13 13 13 13 12 12 11 11 11
27 27 27 26 25 25 25 24 24 23 23 22 21 19 19 18 19 18 18 19 18 17 16 16 15 15 14 14 14 15 15 14 14 13 13 13 13 13 12 13 14 14 14 14 15 16 15 14 14 14 14 16 17 17 16 16 16 15 14 13 13 14 14 13 12 11 12 13 14 14 15 16 14 13 13 13 12 12 12 12 11 11 10 10 10
26 26 25 25 25 26 26 26 25 24 23 23 21 20 19 19 19 18 19 19 18 17 17 16 16 14 14 14 15 15 15 15 14 13 13 12 12 13 13 14 14 14 14 14 15 16 15 13 14 14 14 14 15 16 16 15 14 14 13 14 14 14 13 10 9 10 12 13 14 14 14 14 14 13 12 12 11 11 11 11 10 10 9 9 9
26 26 25 25 26 26 26 26 25 23 23 23 22 21 20 20 20 19 19 18 17 17 17 17 16 15 14 15 15 15 15 15 14 14 13 12 12 13 14 14 14 14 14 14 14 14 14 14 14 15 14 13 13 13 13 13 12 12 12 14 14 14 13 9 8 11 13 14 14 14 13 13 13 12 12 11 11 10 10 10 9 9 8 8 7
26 26 26 26 26 25 25 26 24 23 24 23 22 21 21 21 20 20 19 19 18 18 17 17 17 15 15 15 14 14 15 15 14 14 13 13 12 13 14 14 14 14 13 13 13 13 13 13 13 12 12 11 11 10 10 10 10 11 11 13 14 14 12 9 8 12 13 14 14 13 13 12 12 11 11 11 10 10 9 9 8 8 7 7 6
26 26 27 26 25 25 24 25 23 23 23 22 23 22 21 21 20 20 19 19 19 19 17 17 17 16 15 14 13 13 14 14 13 13 14 14 13 13 13 14 14 13 12 12 11 11 10 10 9 8 8 9 9 8 7 7 7 8 10 11 14 15 12 8 9 12 13 13 14 14 13 13 12 11 11 10 10 9 9 8 8 7 6 6 6
26 26 28 26 25 25 25 25 24 23 22 22 24 22 21 20 20 19 19 19 19 19 17 17 17 16 16 15 14 13 13 14 13 13 14 14 13 12 12 12 12 12 11 10 9 8 7 7 6 6 7 6 7 7 7 7 6 7 8 11 14 15 11 8 11 12 12 13 13 13 12 12 12 11 11 10 10 9 8 8 7 7 6 6 5
25 25 28 27 26 25 25 26 25 23 21 22 24 22 22 20 20 19 18 18 18 19 18 17 17 16 15 14 14 12 13 14 13 13 13 14 13 12 12 11 11 10 9 8 8 6 5 6 5 5 5 5 5 6 6 7 7 6 7 11 16 16 11 8 11 12 12 12 13 12 11 11 11 11 11 10 10 9 8 8 7 6 6 5 5
26 25 27 27 26 25 26 26 25 24 21 21 22 21 20 20 20 20 18 18 18 18 18 18 17 16 15 14 13 12 13 13 12 12 11 12 12 11 11 10 10 9 7 7 7 6 6 5 4 2 3 4 5 6 6 6 6 6 8 12 15 15 12 9 10 12 11 12 12 11 11 10 10 10 10 10 10 9 9 8 8 7 5 5 5
26 26 26 27 26 25 26 26 25 23 21 21 22 21 20 19 19 20 19 18 18 17 18 18 16 16 16 15 14 12 12 12 12 11 10 10 10 9 9 8 8 9 8 7 7 7 6 6 4 2 2 3 5 6 8 7 7 8 11 13 14 14 12 9 10 11 11 11 12 11 10 10 10 10 10 10 10 10 9 9 8 7 5 5 5
27 26 26 26 26 26 26 25 25 24 22 21 22 23 22 21 20 21 20 19 18 17 17 17 16 17 17 17 16 13 12 12 12 11 10 11 9 8 8 7 8 8 8 7 6 6 6 5 4 2 2 2 4 6 7 10 9 9 11 12 12 14 12 9 10 11 11 11 12 11 10 10 10 10 10 10 10 9 9 9 8 7 6 6 6
28 27 27 27 26 26 26 25 25 24 23 22 22 23 23 23 22 21 20 20 19 17 17 16 16 18 17 17 17 14 12 11 11 10 11 11 10 9 8 8 8 7 8 8 7 6 5 5 4 3 1 1 3 5 5 9 11 8 10 11 10 12 11 9 9 9 11 11 11 11 10 10 10 9 10 9 9 8 8 8 8 7 7 6 6
28 27 27 27 27 27 25 25 25 25 24 22 22 23 23 23 22 21 20 20 19 18 17 17 17 17 15 15 16 14 12 11 11 12 12 11 11 10 9 9 8 8 7 7 6 6 6 5 5 3 2 3 4 5 5 7 10 8 10 11 9 11 12 9 8 8 10 10 10 11 11 10 9 8 8 8 8 8 7 7 7 7 6 6 6
29 28 27 27 29 27 25 25 25 26 25 22 22 23 23 22 22 21 20 19 19 20 18 17 17 16 15 14 15 14 12 12 12 13 13 12 11 10 10 10 10 9 8 7 7 6 6 6 5 4 3 5 6 6 5 5 8 8 10 12 10 10 12 11 9 8 9 9 10 10 10 10 9 8 7 7 7 7 7 6 6 6 6 6 6
29 29 28 28 29 27 27 25 25 27 25 22 22 23 23 22 22 22 19 18 20 22 19 19 20 18 16 14 16 15 14 14 14 13 12 12 11 9 10 11 11 10 8 7 6 5 5 6 6 5 4 6 6 7 6 4 6 8 10 11 9 7 11 13 11 9 8 8 9 8 9 9 9 9 8 7 7 7 7 6 6 6 6 6 6
29 30 29 28 28 27 28 26 26 29 24 22 23 24 25 22 22 22 19 19 21 19 19 22 22 19 16 15 17 18 16 16 15 15 13 12 11 9 10 11 10 9 7 6 6 6 5 6 7 5 5 6 7 7 5 4 5 8 11 10 7 6 10 14 13 11 8 7 7 7 8 8 8 9 8 8 7 7 7 7 7 7 7 7 6
29 31 30 28 28 27 28 27 28 29 24 23 23 25 26 22 22 21 19 21 20 18 20 24 22 19 17 17 17 17 17 16 15 15 14 11 10 9 10 10 9 8 7 7 7 7 6 7 7 5 6 6 7 7 4 4 5 7 10 9 7 8 9 12 15 13 8 7 6 6 7 7 7 7 7 7 7 8 8 7 8 8 8 8 8
29 32 31 29 28 28 27 27 29 28 23 24 24 24 24 21 21 20 20 21 19 19 20 20 18 18 18 17 17 17 17 16 14 14 14 12 10 10 9 9 9 8 8 8 9 8 6 6 6 6 7 6 7 6 4 6 6 7 8 8 7 9 9 9 13 13 9 8 6 5 6 6 6 5 5 6 6 7 7 7 8 8 8 8 8
29 33 31 29 29 28 28 28 29 26 24 25 24 23 22 21 22 21 21 19 17 18 15 13 14 16 17 17 16 16 17 16 15 14 13 12 11 10 10 8 8 7 8 10 10 8 6 5 6 7 7 6 8 7 6 8 7 7 8 7 6 7 8 7 10 12 11 8 8 7 6 5 4 4 5 5 6 6 7 7 7 7 8 8 9
29 33 31 29 31 30 29 30 28 25 26 26 23 24 22 22 22 20 21 18 17 17 13 13 14 14 17 17 16 16 16 16 15 14 12 12 11 10 10 8 7 7 9 10 9 9 7 5 5 6 5 5 5 6 8 8 8 10 10 9 6 6 7 7 6 8 10 9 10 9 6 5 3 3 3 4 6 7 6 6 6 7 8 8 9
29 33 30 29 32 31 31 31 28 26 27 25 24 24 21 21 21 20 21 18 16 16 14 18 19 17 16 15 15 16 16 15 14 13 11 11 10 10 9 7 7 7 8 9 9 10 9 6 5 5 4 3 2 6 9 6 7 12 11 8 7 7 7 7 6 6 8 10 9 10 8 7 6 5 4 4 5 6 6 5 4 6 7 7 7
30 34 31 29 32 31 32 32 29 27 28 27 25 25 23 22 23 23 21 18 17 18 17 21 22 19 16 14 16 15 15 16 14 13 11 10 10 10 10 8 7 7 6 8 8 9 9 7 6 5 5 4 4 6 7 7 11 12 11 8 6 5 5 7 7 6 8 9 9 11 11 8 9 8 5 5 6 6 5 4 3 4 5 5 5
31 34 31 31 32 32 34 34 31 29 29 29 27 27 26 24 25 25 21 19 20 20 19 21 21 19 16 14 16 15 15 15 13 12 11 10 11 11 10 9 8 7 6 7 8 8 8 7 7 6 6 5 4 5 6 7 8 8 8 9 7 6 5 6 7 6 7 8 7 10 12 11 11 11 7 7 8 7 6 4 3 4 5 4 5
32 35 32 32 32 32 35 34 32 31 30 31 28 27 27 26 26 26 23 22 21 19 20 22 20 18 17 15 15 15 14 14 13 12 10 10 11 11 10 8 7 7 7 8 8 7 7 8 7 6 5 4 3 6 7 5 5 6 7 6 5 6 5 5 8 7 7 9 6 4 10 13 12 11 10 8 9 8 7 6 4 5 5 4 4
34 36 31 31 32 32 36 35 32 32 31 31 29 27 26 25 25 25 25 22 19 19 19 20 20 18 17 16 16 15 15 15 13 12 11 10 10 10 9 8 7 7 8 9 8 8 8 8 7 5 5 4 4 7 9 4 3 7 7 4 3 3 2 3 6 7 7 10 8 4 8 12 12 12 13 10 8 7 7 8 7 6 6 5 5
33 35 31 31 32 32 36 36 33 33 33 32 29 28 27 25 22 23 25 19 17 19 18 19 21 18 18 17 16 15 14 15 14 13 11 9 8 8 8 7 7 6 7 7 7 8 8 7 7 6 5 4 3 5 7 4 4 7 5 2 2 3 0 3 5 7 7 9 11 9 8 10 12 13 13 11 9 8 9 9 9 7 7 8 8
33 36 33 31 32 33 37 37 35 34 34 33 30 28 28 25 21 23 23 18 17 19 17 21 23 20 19 19 17 15 14 15 15 13 11 9 9 8 8 8 7 6 6 6 6 6 8 7 6 6 6 5 4 5 5 5 5 5 2 1 1 2 1 3 3 4 6 7 9 11 10 11 13 13 11 11 11 12 12 10 10 10 9 8 8
33 36 34 32 31 34 37 37 36 34 34 34 31 29 29 27 26 27 25 21 21 21 19 24 25 21 20 20 19 16 15 15 14 13 12 11 11 10 9 9 7 7 7 5 5 5 7 7 6 6 6 5 6 4 4 6 5 3 4 3 2 2 3 2 2 1 4 5 6 9 13 13 14 16 13 11 13 15 13 12 11 11 10 8 7
33 36 34 32 32 34 37 37 36 35 35 35 32 30 31 30 29 29 28 27 26 24 22 23 23 21 19 19 20 18 16 16 14 13 13 13 12 12 10 9 8 7 7 6 5 5 7 7 6 6 5 6 7 4 4 7 5 3 5 4 1 3 5 3 3 1 1 3 5 6 15 16 14 17 16 13 14 15 14 14 13 11 10 8 7
34 36 34 33 33 35 37 37 37 35 35 36 33 32 32 32 31 28 28 31 29 26 25 22 21 22 21 20 20 19 17 17 16 14 15 14 13 13 11 10 9 7 7 6 6 6 6 7 8 7 5 5 7 5 4 6 4 3 4 4 3 3 3 3 4 4 2 1 4 3 10 14 14 18 18 14 13 15 15 15 14 12 11 9 9
34 36 35 35 34 36 38 37 37 36 35 36 35 33 34 34 31 26 27 32 30 28 26 23 22 22 22 22 19 18 18 18 17 16 16 16 14 13 13 12 11 10 8 7 7 8 7 8 9 7 5 6 7 5 4 5 2 2 3 4 3 2 3 4 4 4 3 2 2 4 6 7 11 17 17 13 11 12 14 15 13 11 10 10 11
34 36 35 35 34 36 38 37 37 37 36 37 36 35 35 36 32 26 26 30 30 29 26 24 24 22 22 24 21 19 19 19 18 17 17 17 15 13 13 13 13 12 10 8 8 9 9 9 8 7 6 6 7 5 4 4 1 1 2 3 3 3 3 3 4 5 4 2 2 4 6 3 5 10 9 8 6 7 10 12 12 12 10 11 11
33 35 34 35 35 36 39 39 38 38 37 38 37 35 36 37 35 28 26 29 30 31 28 24 26 25 23 25 23 21 20 19 19 18 17 17 15 14 12 12 13 12 12 10 9 9 10 9 6 6 8 6 7 7 6 4 2 2 3 2 3 6 4 2 3 5 5 2 2 3 6 7 2 4 5 7 5 4 7 9 10 11 11 11 11
Wind_Direction
146 140 135 135 129 126 125 126 123 119 118 116 116 118 120 121 122 122 121 119 117 116 117 116 114 112 110 109 108 107 106 105 105 103 100 97 95 92 90 89 91 92 93 93 91 89 89 90 92 95 95 96 95 95 98 100 98 96 97 98 98 98 98 96 98 97 97 97 98 96 93 91 90 94 95 93 92 91 96 98 98 98 96 98 99
146 141 140 140 132 130 130 129 125 121 119 118 119 120 122 123 123 120 118 117 117 118 118 117 115 114 113 112 112 111 110 109 106 103 100 97 94 93 92 91 91 92 93 96 94 92 92 91 91 92 95 95 94 94 93 94 94 96 98 100 102 105 101 98 100 99 98 97 97 95 93 92 92 94 95 95 96 95 96 97 98 99 98 97 97
143 143 142 141 134 133 132 129 126 123 122 121 122 122 123 124 122 118 117 116 117 117 117 116 115 115 115 114 114 113 112 109 106 102 99 95 92 92 92 93 94 94 93 94 95 95 94 92 91 91 92 91 92 93 92 92 92 95 99 100 103 105 101 98 101 103 99 95 96 96 93 92 92 95 98 99 99 98 96 97 97 98 99 98 98
144 144 142 140 136 134 131 129 127 125 124 123 123 123 124 122 118 116 117 117 115 115 115 116 116 116 115 114 114 114 114 110 104 99 96 94 92 92 91 92 94 95 92 92 94 95 95 94 93 92 92 91 91 92 94 94 92 95 99 98 100 101 104 104 101 102 101 99 100 100 98 94 92 93 96 97 97 97 96 98 99 99 99 100 101
146 143 142 141 137 134 132 132 129 127 127 125 123 121 120 118 116 117 117 115 113 114 116 117 117 116 114 114 113 114 114 110 104 99 96 94 93 92 92 93 95 96 94 94 95 95 93 93 93 93 93 92 92 91 93 94 93 95 97 96 97 98 103 107 101 101 103 102 102 101 100 98 94 94 95 96 96 96 98 100 100 100 101 102 103
144 141 142 139 136 135 135 133 130 130 129 126 123 121 120 119 119 119 117 114 114 116 117 118 117 117 115 114 113 112 113 110 105 101 99 96 94 92 93 94 96 97 96 96 96 96 94 94 94 93 92 92 92 92 92 92 94 96 97 96 96 96 97 103 105 104 105 105 104 101 101 101 99 97 97 97 97 97 99 100 99 100 101 102 102
141 140 140 137 136 136 136 134 132 132 130 127 125 124 123 122 121 119 118 116 117 118 119 119 119 118 116 114 111 111 113 110 107 103 100 98 96 94 95 96 96 96 97 97 97 97 96 96 96 95 94 94 93 93 94 94 96 97 97 95 94 96 94 100 106 108 108 107 106 104 104 103 101 99 99 99 98 99 98 99 99 99 101 102 102
139 139 137 137 138 138 137 136 136 134 132 130 128 127 125 123 122 122 121 120 121 121 122 121 119 118 117 114 112 113 113 111 109 104 101 99 97 95 96 97 98 98 99 99 99 98 97 98 98 97 96 95 94 94 96 96 96 96 97 98 97 97 96 101 109 112 111 107 104 106 105 102 100 99 100 101 99 98 98 99 98 97 98 99 100
139 139 139 139 138 138 138 139 139 137 135 132 130 129 127 125 124 126 124 124 124 124 122 120 119 119 119 117 115 114 112 110 108 105 102 100 99 97 95 97 99 100 100 100 99 98 99 99 98 97 96 95 95 95 96 96 96 96 98 104 103 100 98 104 112 114 111 107 105 107 107 102 100 100 101 101 100 99 98 98 97 96 96 97 97
139 141 143 140 138 140 140 140 140 138 136 133 132 130 128 128 129 129 127 126 126 124 121 120 120 121 121 119 116 114 111 110 108 106 103 101 102 100 97 98 100 101 102 102 101 99 100 100 99 98 98 97 96 97 94 92 96 97 98 103 104 103 104 109 114 113 110 109 109 110 108 104 100 101 106 104 101 100 100 99 98 98 97 98 99
141 144 144 140 139 141 140 141 140 140 138 135 134 132 133 134 133 132 129 127 125 124 122 121 122 122 121 119 116 113 111 109 108 107 105 104 103 102 100 100 101 102 103 105 104 103 101 101 102 101 101 100 99 99 95 91 96 98 97 100 103 105 110 114 114 112 110 109 111 112 109 105 100 101 106 105 103 102 102 101 100 100 99 100 101
142 145 143 141 140 141 141 141 141 141 139 137 138 138 138 137 135 132 130 127 125 125 123 123 124 123 121 118 116 114 111 109 108 107 107 106 104 104 103 102 102 102 104 107 108 106 105 104 104 105 105 102 101 101 97 93 95 97 98 101 103 106 115 119 116 113 112 111 112 114 110 105 102 104 105 103 103 104 104 103 102 101 101 101 102
140 144 143 142 142 142 142 141 142 142 141 141 142 142 139 136 134 132 130 128 127 126 125 125 124 123 121 119 117 114 111 109 109 108 109 108 108 108 105 104 102 104 109 109 108 108 110 109 106 108 108 104 103 102 98 95 95 95 98 103 104 108 117 120 118 116 114 114 115 116 111 106 105 106 106 105 105 105 104 103 102 102 102 102 102
141 143 143 142 142 144 144 144 144 144 144 145 144 141 138 137 135 134 131 129 129 127 127 127 125 123 121 120 116 114 112 111 110 110 110 110 109 108 107 107 105 108 114 110 107 108 111 111 108 109 110 107 106 105 99 97 98 97 98 100 102 107 115 119 120 120 118 118 118 117 113 109 109 109 108 107 107 106 105 105 104 103 102 102 103
144 143 143 142 143 146 146 147 147 148 148 147 143 141 139 138 137 136 133 132 130 129 129 127 126 124 122 120 117 116 114 112 111 112 112 112 111 110 109 107 107 111 112 109 108 109 110 111 111 111 112 111 109 109 104 102 102 103 102 100 101 106 115 120 122 123 122 122 120 117 113 111 112 113 111 109 109 109 109 108 107 105 104 104 105
143 143 143 143 145 148 148 149 150 150 149 145 142 141 141 140 139 138 135 134 132 131 129 127 126 124 123 121 118 117 115 114 113 114 115 115 114 112 111 108 109 112 112 110 110 111 111 111 113 114 115 114 111 110 109 106 103 104 105 103 105 108 115 121 124 125 123 123 122 119 115 114 114 115 114 113 113 112 112 111 109 108 107 107 107
143 144 144 146 148 149 150 149 149 150 146 142 141 142 142 141 141 139 137 135 133 132 129 127 126 124 123 121 119 117 115 115 114 115 116 116 115 114 113 109 107 107 111 112 112 112 112 112 114 114 114 114 111 110 110 108 105 105 106 105 108 112 115 120 122 124 124 124 123 121 118 117 117 118 118 118 116 115 114 113 112 111 110 109 108
145 146 146 148 149 148 149 148 148 147 144 142 142 143 143 143 142 140 138 136 134 132 130 128 126 125 123 121 119 117 117 116 116 116 115 115 115 115 114 109 105 103 107 111 114 114 112 111 111 112 113 113 113 114 113 111 110 108 106 104 109 115 119 121 121 123 127 128 127 125 122 120 121 121 122 122 119 117 116 115 115 114 113 112 110
145 146 147 148 147 148 150 149 149 147 145 144 143 144 144 143 142 140 138 136 134 131 130 129 127 125 123 122 120 118 118 116 116 115 113 114 113 112 110 107 105 103 103 106 111 112 111 110 110 111 111 111 114 119 119 114 112 111 108 107 109 111 115 119 121 128 134 133 131 129 126 124 123 123 125 124 122 120 119 119 119 118 116 115 114
145 146 147 147 149 152 152 151 150 148 146 144 144 145 144 142 141 139 138 136 134 133 132 129 128 125 124 123 121 118 117 117 116 116 114 113 111 106 103 104 105 104 102 101 106 109 108 108 112 112 111 113 117 122 121 117 113 112 114 116 116 109 106 113 122 136 140 138 138 134 131 128 126 126 127 126 124 122 122 122 121 121 119 118 117
146 148 148 150 154 154 152 152 150 148 146 144 144 145 144 143 141 139 138 136 135 134 133 131 129 127 126 124 122 120 120 120 118 117 116 114 109 102 100 103 104 104 102 100 103 105 105 106 109 108 109 114 121 125 125 123 118 116 119 123 125 118 114 122 131 139 140 141 143 138 134 132 129 128 128 126 125 124 125 126 125 123 122 122 121
150 151 151 155 157 154 153 151 149 148 147 145 145 145 146 145 142 142 139 137 138 138 136 134 132 132 131 127 124 123 123 124 122 121 120 118 111 102 103 105 104 106 104 102 102 103 105 108 108 105 105 108 118 126 129 130 128 127 126 130 133 126 130 145 144 140 140 142 144 140 137 134 131 130 130 129 129 128 128 129 129 128 127 127 124
152 151 152 159 157 154 154 151 149 152 150 147 147 148 149 147 145 144 142 142 142 140 138 137 139 139 136 130 127 128 127 124 124 125 123 123 116 107 108 109 108 107 106 107 107 107 109 112 110 107 107 109 116 123 130 132 134 138 133 137 136 129 145 161 148 143 141 140 141 140 139 138 137 137 136 135 135 134 133 133 132 132 132 131 129
153 151 153 159 158 157 156 153 155 156 152 152 152 150 150 150 148 146 145 147 146 142 141 144 147 145 139 134 132 132 129 125 128 129 127 126 122 117 115 112 111 108 110 113 116 119 119 119 116 113 113 117 122 127 136 132 135 145 139 143 139 135 156 163 145 147 144 141 140 139 142 142 141 142 144 143 142 141 138 139 138 138 137 136 135
153 151 153 159 160 161 158 158 160 157 155 159 156 152 152 151 149 148 149 149 148 147 147 151 153 147 142 139 138 138 134 133 138 136 131 130 128 128 125 120 118 117 121 124 125 128 124 121 119 118 118 121 128 132 142 139 142 151 141 148 150 148 161 157 144 146 146 146 142 140 142 141 143 144 148 149 149 150 148 146 145 144 144 140 138
156 151 153 160 163 163 162 162 161 158 161 163 157 154 154 153 153 152 153 151 150 152 153 156 155 150 146 141 142 148 145 142 144 141 137 136 134 137 137 134 133 130 132 132 130 129 123 121 115 114 118 125 139 144 150 146 147 162 149 148 158 160 161 154 147 145 144 145 139 137 140 140 145 147 150 154 153 156 156 156 154 153 153 145 142
158 152 154 160 162 163 164 164 161 160 165 164 158 157 157 157 158 156 157 154 153 157 159 159 158 158 156 147 148 157 155 152 149 142 140 140 138 139 141 141 137 131 127 128 132 135 134 126 111 110 129 138 157 153 148 139 135 158 163 153 159 167 168 158 148 148 146 142 138 137 140 141 145 149 151 156 155 155 157 160 160 160 160 154 150
157 154 157 161 163 165 164 165 163 160 164 164 161 160 160 162 162 162 163 158 158 164 164 161 158 161 163 155 155 162 160 156 151 146 145 143 140 142 142 139 135 131 126 126 129 131 134 125 116 136 136 144 166 159 144 139 134 143 160 163 166 172 173 162 150 154 154 147 145 145 146 145 145 149 153 156 155 153 156 160 159 158 159 156 155
155 156 160 162 165 167 165 165 164 161 164 168 167 164 165 168 169 168 167 163 164 169 165 162 160 162 165 158 158 169 167 160 153 149 149 148 147 152 151 146 142 136 126 119 116 122 130 124 122 126 93 113 163 166 151 152 153 143 154 165 168 172 174 168 157 158 161 157 155 154 155 153 149 151 153 156 156 155 156 156 154 154 154 155 155
156 157 161 163 164 166 167 168 165 164 165 170 172 170 170 172 170 169 169 168 168 171 166 163 162 162 164 160 163 174 172 163 156 149 148 145 145 154 158 150 148 142 119 105 102 113 124 119 121 118 96 161 165 175 179 172 167 147 151 165 169 175 177 173 166 162 165 165 163 163 164 164 159 156 155 155 156 156 155 153 152 152 152 155 157
157 158 163 165 165 165 166 169 169 165 164 170 175 173 172 171 169 170 172 170 170 170 163 160 163 162 162 162 168 175 174 171 161 152 151 146 140 149 156 145 145 146 123 112 115 119 123 121 127 125 151 194 177 173 184 175 168 151 148 160 168 175 178 178 172 166 168 171 171 171 172 173 170 164 161 159 159 159 156 155 154 154 157 159 162
159 162 166 166 164 165 166 169 171 168 165 171 176 172 172 173 172 173 173 169 169 167 159 161 168 163 157 160 169 173 176 178 166 155 154 152 146 146 149 141 143 148 132 128 133 132 135 135 140 133 143 168 162 154 153 148 159 156 144 154 168 172 177 182 181 174 170 172 176 177 177 178 179 177 174 169 165 164 163 163 163 164 166 169 174
160 165 168 164 163 166 167 170 175 172 168 173 175 170 170 172 172 172 172 171 168 167 167 169 167 159 151 153 160 161 163 165 159 156 154 151 147 142 144 141 142 143 135 136 140 146 149 145 147 141 140 159 159 155 165 159 158 163 150 155 171 171 178 183 183 185 176 170 176 180 180 181 182 184 185 183 180 178 178 178 179 182 182 187 194
161 166 168 165 164 166 167 171 175 172 168 173 174 169 170 171 169 171 172 170 167 170 178 173 166 163 158 151 152 153 152 153 151 152 150 147 142 138 141 141 142 142 139 145 156 166 161 151 148 145 150 159 167 175 188 172 151 161 157 157 163 154 179 189 186 188 184 168 171 179 184 185 184 185 188 189 192 193 194 196 198 202 203 205 211
164 166 168 166 165 166 166 170 172 169 167 173 173 171 175 172 169 171 170 169 166 168 173 169 167 169 164 155 154 155 154 152 150 150 148 148 146 142 143 143 145 142 138 144 156 163 154 145 138 142 159 157 173 189 189 156 134 133 143 153 161 151 168 188 188 191 193 176 169 175 184 188 183 184 191 194 197 201 201 204 208 212 216 217 221
166 166 169 169 166 163 165 170 169 167 168 172 171 170 173 170 168 169 166 168 163 158 161 163 167 170 168 163 161 162 161 155 150 150 150 151 152 148 148 148 145 140 138 143 147 142 129 128 126 140 157 145 150 157 136 150 139 120 131 136 148 155 152 168 184 191 193 187 182 175 176 182 183 183 194 201 205 208 208 209 215 219 223 224 226
167 166 171 170 166 162 164 168 169 171 170 169 169 167 168 168 167 166 164 169 164 157 159 163 168 170 172 170 167 166 164 159 153 153 154 153 154 151 150 144 138 142 146 146 141 129 114 115 128 139 147 143 145 145 139 152 153 139 138 127 121 140 146 155 181 189 190 194 193 182 174 174 181 187 195 209 214 214 213 212 219 226 230 231 232
169 168 173 170 166 163 164 167 168 171 168 167 169 166 167 168 169 167 165 172 170 166 167 169 172 172 173 174 170 166 164 162 157 158 159 156 159 155 153 147 142 150 148 148 145 134 124 121 138 140 140 156 166 178 181 180 185 169 144 133 123 122 141 149 160 177 184 194 197 189 185 184 182 188 202 220 215 212 215 214 221 229 233 236 239
170 170 174 171 166 164 165 168 168 168 165 166 168 166 166 163 166 169 169 173 170 167 171 174 176 174 176 177 168 165 168 167 161 161 162 162 166 159 156 155 151 153 146 151 155 146 139 133 147 144 134 141 126 172 184 169 158 155 137 132 138 131 141 150 148 165 180 190 197 190 190 198 195 191 213 233 221 211 213 217 226 229 230 232 241
170 170 175 173 168 165 165 167 169 169 166 167 168 168 168 159 162 171 173 176 171 169 174 176 177 178 180 177 167 166 169 170 166 162 160 163 169 166 162 155 149 154 153 157 156 150 145 142 155 152 135 127 105 137 154 122 118 127 122 126 145 150 147 158 168 179 188 192 191 188 194 205 201 201 215 226 225 220 209 218 240 230 222 227 248
170 170 175 175 170 166 166 167 169 170 168 171 171 170 170 162 164 174 177 178 175 174 176 176 179 183 185 177 170 170 169 171 172 166 162 164 169 171 165 152 147 152 151 155 155 150 145 146 154 148 138 134 123 138 140 130 129 122 125 138 157 175 163 169 183 185 196 199 189 190 200 202 200 208 217 215 221 224 217 229 250 228 221 231 259
169 172 177 176 172 167 167 168 170 171 171 173 174 173 173 168 169 175 175 177 180 178 177 177 181 187 186 179 172 170 168 172 176 172 165 162 167 173 168 153 148 149 143 149 155 152 147 146 148 144 145 132 120 153 156 146 145 147 154 156 157 173 177 185 193 195 196 194 189 195 201 197 196 202 207 209 216 222 230 239 236 224 226 239 265
170 175 179 176 172 169 169 169 171 172 172 175 176 175 175 171 173 176 174 179 184 179 177 177 180 183 182 179 174 169 169 172 177 176 168 162 163 170 171 159 157 157 148 148 150 152 150 149 149 147 151 140 114 150 163 158 168 167 163 168 163 159 202 219 201 204 195 190 195 186 188 193 192 192 196 203 210 220 232 231 228 233 235 244 263
170 175 179 176 172 171 170 170 172 173 173 175 177 177 175 173 176 178 177 181 180 176 174 171 174 175 173 178 178 173 174 174 175 175 172 171 169 174 181 173 169 169 156 152 154 155 154 149 148 148 152 164 157 160 171 167 166 165 147 176 183 122 108 248 213 209 205 203 204 199 194 189 184 187 197 211 216 213 216 218 225 241 247 254 260
171 176 179 178 174 172 171 172 174 175 175 176 178 178 177 175 175 176 180 181 175 176 168 160 168 172 170 177 183 182 181 179 178 176 177 180 182 189 192 186 183 174 159 153 154 154 154 158 163 163 161 170 173 170 186 186 171 177 168 144 127 104 214 223 195 220 236 230 214 210 207 191 190 200 203 214 216 200 206 222 230 240 247 251 251
173 178 180 180 178 174 172 173 175 176 178 178 178 180 180 178 176 175 180 177 176 185 175 161 168 175 174 177 183 187 184 181 182 179 182 189 192 196 193 192 193 179 171 163 158 158 164 173 178 176 171 163 170 173 177 179 174 190 188 154 92 115 171 158 132 241 265 257 254 230 211 197 203 217 212 212 212 202 214 233 233 239 244 240 237
173 178 181 182 180 175 173 175 177 178 180 180 179 182 183 183 182 180 180 177 177 187 184 171 172 177 179 179 183 190 186 182 187 184 186 194 197 200 195 190 194 184 179 178 175 170 173 185 182 179 181 162 171 174 140 153 158 168 186 204 243 134 136 146 168 186 262 264 283 228 204 204 211 218 218 218 217 212 224 233 230 238 245 244 245
173 177 181 183 183 178 176 177 179 180 182 183 182 183 183 185 189 186 180 179 180 183 185 181 177 178 182 182 184 191 187 181 189 191 191 199 200 200 197 189 193 195 190 190 188 176 171 183 181 177 182 173 179 181 155 161 170 188 199 211 229 180 166 192 188 177 157 236 299 247 215 224 224 222 224 228 229 222 223 227 227 236 244 246 250
174 177 181 185 185 181 179 179 180 182 184 186 186 185 184 185 191 191 180 181 183 180 184 186 182 181 183 183 183 188 187 182 190 195 193 200 203 199 198 194 193 198 202 194 180 182 180 177 185 187 183 183 183 178 179 185 189 263 232 196 189 184 189 201 203 202 176 157 272 282 274 246 214 218 226 233 240 229 222 225 225 232 244 250 253
176 179 181 184 185 182 180 181 182 184 186 187 187 186 186 186 192 194 182 181 182 178 182 187 187 188 183 182 184 186 189 186 190 197 194 197 204 203 202 199 194 191 198 197 188 198 194 180 194 196 176 174 176 179 198 198 215 314 225 204 204 201 200 207 217 217 213 232 251 275 313 329 181 204 219 221 228 212 210 219 221 230 248 255 256
177 178 181 184 186 183 182 183 184 185 187 188 188 188 187 187 191 195 185 181 181 178 182 185 186 189 184 184 188 189 191 189 188 196 199 198 204 207 207 206 199 189 192 205 210 208 195 188 201 189 179 186 183 192 202 201 231 211 183 221 200 192 207 213 216 214 206 227 266 268 321 343 309 227 209 195 197 194 206 221 226 234 247 251 252